TimePDT,TemperatureF,Dew PointF,Humidity,Sea Level PressureIn,VisibilityMPH,Wind Direction,Wind SpeedMPH,Gust SpeedMPH,PrecipitationIn,Events,Conditions,WindDirDegrees,DateUTC
12:00 AM,55.2,46.9,74,30.13,-9999.0,South,4.6,-,N/A,,Unknown,190,2012-10-02 07:00:00
1:00 AM,52.0,45.7,79,30.14,-9999.0,Calm,Calm,-,N/A,,Unknown,0,2012-10-02 08:00:00
2:00 AM,52.7,44.8,74,30.14,-9999.0,West,8.1,-,N/A,,Unknown,260,2012-10-02 09:00:00
3:00 AM,52.7,43.9,72,30.15,-9999.0,South,3.5,-,N/A,,Unknown,180,2012-10-02 10:00:00
4:00 AM,51.6,43.5,74,30.16,-9999.0,SSE,3.5,-,N/A,,Unknown,150,2012-10-02 11:00:00
5:00 AM,50,44,73,30.17,,East,4.6,,,,,90,2012-10-02 12:00:00
5:00 AM,50.4,43.9,78,30.17,-9999.0,East,4.6,-,N/A,,Unknown,90,2012-10-02 12:00:00
6:00 AM,49.6,43.3,79,30.17,-9999.0,East,5.8,-,N/A,,Unknown,100,2012-10-02 13:00:00
7:00 AM,48.4,42.4,80,30.15,-9999.0,ESE,5.8,-,N/A,,Unknown,110,2012-10-02 14:00:00
8:00 AM,48.9,43.0,80,30.16,-9999.0,East,3.5,-,N/A,,Unknown,90,2012-10-02 15:00:00
9:00 AM,50.7,43.7,77,30.18,-9999.0,ESE,5.8,-,N/A,,Unknown,110,2012-10-02 16:00:00
10:00 AM,50.9,43.3,75,30.19,-9999.0,ESE,8.1,-,N/A,,Unknown,110,2012-10-02 17:00:00
11:00 AM,52,42,61,30.20,,ESE,8.1,,,,,110,2012-10-02 18:00:00
11:00 AM,51.6,42.4,71,30.20,-9999.0,ESE,8.1,-,N/A,,Unknown,110,2012-10-02 18:00:00
12:00 PM,52.2,41.7,68,30.22,-9999.0,ESE,6.9,-,N/A,,Unknown,110,2012-10-02 19:00:00
1:00 PM,54.0,42.1,64,30.22,-9999.0,East,2.3,-,N/A,,Unknown,100,2012-10-02 20:00:00
2:00 PM,55.8,40.5,56,30.22,-9999.0,East,6.9,-,N/A,,Unknown,80,2012-10-02 21:00:00
3:00 PM,58.3,40.3,51,30.23,-9999.0,ESE,6.9,-,N/A,,Unknown,110,2012-10-02 22:00:00
4:00 PM,59.2,39.4,48,30.24,-9999.0,SSE,4.6,-,N/A,,Unknown,150,2012-10-02 23:00:00
5:00 PM,60,38,32,30.24,,SSE,2.3,,,,,160,2012-10-03 00:00:00
5:00 PM,59.5,37.8,44,30.24,-9999.0,SSE,2.3,-,N/A,,Unknown,160,2012-10-03 00:00:00
6:00 PM,59.5,38.1,45,30.24,-9999.0,WNW,3.5,-,N/A,,Unknown,290,2012-10-03 01:00:00
7:00 PM,54.7,41.2,60,30.26,-9999.0,WNW,3.5,-,N/A,,Unknown,290,2012-10-03 02:00:00
8:00 PM,50.4,40.6,69,30.28,-9999.0,WNW,3.5,-,N/A,,Unknown,300,2012-10-03 03:00:00
9:00 PM,47.1,41.9,82,30.31,-9999.0,NNE,1.2,-,N/A,,Unknown,20,2012-10-03 04:00:00
10:00 PM,45.1,40.5,84,30.34,-9999.0,ENE,1.2,-,N/A,,Unknown,60,2012-10-03 05:00:00
11:00 PM,44,41,86,30.36,,Calm,Calm,,,,,,2012-10-03 06:00:00
11:00 PM,44.1,41.2,90,30.36,-9999.0,Calm,Calm,-,N/A,,Unknown,0,2012-10-03 06:00:00